{"data":{"norad_id":56538,"epoch":"2026-05-24T23:33:59.387904Z","epoch_age_seconds":86677,"freshness":"FRESH","line1":"1 56538U 23065AM  26144.98193736 -.00000025  00000+0  86212-5 0  9997","line2":"2 56538  43.0002 127.2394 0000995 268.1400  91.9337 15.27572871168439","mean_motion":15.27572871,"eccentricity":9.95e-5,"inclination_deg":43.0002,"raan_deg":127.2394,"arg_perigee_deg":268.14,"mean_anomaly_deg":91.9337,"bstar":8.6212e-6,"rev_number":16843,"period_min":94.2671886453,"perigee_km":482.38775277275,"apogee_km":483.75313305388,"semimajor_km":6861.2074429133,"source":"CELESTRAK","updated_at":"2026-05-25T13:38:18.113838Z"}}